Wind_Speed
6 6 8 6 6 6 3 5 9 7 9 9 10 10 7 5 5 4 1 1 2 4 6 7 9 11 13 14 16 17 17 18 18 18 18 18 18 18 18 15 12 11 12 14 16 16 14 12 11
6 7 8 6 6 5 8 13 5 3 10 12 12 13 11 8 8 6 3 3 4 2 3 4 6 8 11 13 15 16 16 16 16 17 17 17 17 17 17 16 14 11 11 12 14 15 15 13 11
7 7 7 7 8 9 3 10 10 7 10 14 16 15 14 10 10 10 7 6 6 7 5 6 6 7 10 11 13 14 14 14 14 14 15 15 15 15 16 16 15 12 11 12 12 14 14 15 12
7 6 5 7 11 12 14 6 7 12 9 16 18 19 17 14 14 15 10 9 8 11 10 9 9 9 10 11 11 12 12 12 12 12 13 13 13 13 14 14 15 14 12 11 12 13 13 13 11
6 6 5 7 10 17 17 21 10 14 18 16 19 20 20 20 15 16 14 12 10 13 13 12 12 11 12 11 12 12 11 11 10 10 11 12 12 12 12 12 14 13 13 12 11 11 12 13 10
7 6 7 7 9 11 13 12 11 13 18 21 18 20 22 21 19 16 16 16 12 15 17 15 15 14 14 14 14 13 12 12 11 10 10 11 11 12 12 12 12 13 12 12 12 12 12 13 12
9 8 9 9 10 12 13 13 15 14 18 20 22 22 21 22 21 21 19 20 16 17 20 20 19 17 15 17 16 16 15 13 12 12 10 10 11 12 12 13 12 12 12 12 11 11 12 13 13
12 10 12 14 10 11 15 17 17 18 18 21 22 25 21 22 22 24 23 23 22 18 20 22 24 21 18 18 19 18 18 16 14 13 12 11 12 13 13 13 13 14 13 13 12 11 11 12 12
13 12 15 17 14 15 20 19 23 21 19 21 25 24 23 23 22 22 25 25 24 23 22 23 24 26 22 21 22 22 21 20 18 16 15 14 14 14 14 14 14 14 15 15 14 13 13 13 13
14 14 18 18 19 18 22 21 22 21 22 26 22 29 24 22 23 23 21 23 22 24 25 23 24 25 27 24 24 24 23 23 21 20 19 17 18 17 16 17 16 16 16 16 15 14 14 15 15
16 17 20 21 22 22 20 19 20 19 21 24 24 29 30 26 23 24 27 23 23 24 24 26 25 26 25 28 27 26 26 26 24 25 23 20 21 19 19 19 18 19 18 19 19 18 16 16 16
18 21 22 21 23 21 19 17 18 18 23 23 23 26 30 29 29 27 28 30 28 27 25 29 30 27 26 25 29 29 27 27 27 28 27 23 25 23 23 23 22 22 22 21 22 22 22 20 19
18 21 23 23 21 21 17 20 19 21 23 23 25 24 26 30 30 30 28 31 34 34 31 28 32 32 29 26 27 28 31 30 29 30 30 26 29 27 26 26 26 26 26 24 25 26 25 25 25
20 19 22 23 24 26 24 23 26 26 24 21 24 26 27 29 30 30 32 34 33 36 37 34 31 35 38 32 31 30 30 33 31 32 32 30 32 31 29 29 29 29 29 28 29 30 28 29 29
20 19 23 24 25 26 25 20 25 26 26 24 25 29 30 30 35 37 36 35 36 39 39 39 37 35 38 40 37 35 34 34 34 34 36 35 35 34 32 31 31 32 32 31 32 33 32 31 31
19 19 16 22 23 24 21 13 19 26 27 28 29 31 33 40 39 38 37 36 38 39 43 45 44 41 39 40 43 42 39 39 39 39 39 39 40 39 37 36 35 35 35 35 35 36 34 34 33
19 17 17 17 25 25 20 13 18 24 27 28 31 34 35 36 38 38 37 34 34 37 40 42 43 44 41 40 42 45 45 42 42 43 42 43 44 43 41 40 40 37 37 37 37 37 36 35 35
18 20 19 19 20 26 24 15 17 21 24 27 28 30 31 31 30 32 33 33 33 34 35 37 39 41 43 44 39 40 42 42 43 43 45 45 45 45 43 43 43 41 38 39 38 37 37 37 37
16 18 18 19 22 22 23 21 24 26 29 29 31 32 34 35 36 39 35 31 32 34 34 32 33 34 36 39 43 37 39 44 45 42 43 46 46 46 45 44 45 44 43 43 42 39 39 40 38
20 22 22 21 26 28 29 30 31 34 37 38 39 40 41 44 43 41 38 38 33 36 38 43 46 46 47 48 47 47 42 37 42 44 43 43 46 49 49 49 48 47 47 45 44 43 41 41 39
24 29 28 30 29 31 35 37 40 41 45 48 50 51 51 50 46 45 45 43 43 42 44 47 51 52 51 51 53 56 56 53 46 44 40 41 45 48 50 51 52 51 48 46 46 45 44 44 41
27 32 33 34 37 35 36 40 45 46 49 54 56 56 54 52 49 48 48 49 47 49 50 52 51 54 54 54 56 56 60 62 61 54 51 48 46 46 48 49 52 52 52 50 49 48 48 48 45
35 36 38 40 42 43 42 45 47 53 56 57 57 57 57 58 57 56 57 57 55 53 53 56 57 56 59 61 61 65 63 64 64 66 61 55 52 50 47 47 49 52 52 52 51 48 48 49 48
38 39 39 42 42 41 42 44 49 51 53 56 58 60 61 62 62 63 62 61 62 61 62 64 65 65 66 68 66 66 69 68 69 70 70 63 60 58 52 51 50 51 53 52 52 52 52 50 51
38 39 40 40 40 40 41 45 48 52 54 57 59 61 63 63 65 65 66 65 64 68 71 73 74 74 73 73 74 72 74 75 76 75 77 75 67 62 61 55 54 53 54 55 56 56 54 52 52
37 37 38 41 40 40 38 44 49 52 56 56 58 59 60 64 65 67 72 75 75 75 78 79 79 80 79 80 81 84 84 80 76 77 76 80 80 74 68 59 58 55 57 56 56 57 57 54 51
40 39 41 43 45 49 50 52 58 65 62 60 59 61 62 65 70 74 75 75 77 79 82 86 89 92 95 96 97 96 94 89 81 78 76 81 86 84 76 71 64 59 59 60 58 57 55 55 52
41 40 42 46 52 56 56 59 62 66 63 63 60 58 65 71 71 72 71 70 74 77 83 91 97 99 99 95 88 92 87 81 73 72 78 88 82 86 85 75 70 64 61 63 63 60 56 52 51
43 45 49 52 56 60 60 62 64 64 64 67 69 71 75 78 75 74 79 86 90 93 94 92 89 86 83 78 71 64 60 61 59 66 95 98 103 92 86 82 76 69 67 65 67 63 59 52 50
48 49 53 57 60 65 67 66 64 65 66 69 75 79 82 81 83 84 87 89 90 85 79 67 63 62 58 56 57 53 47 49 50 49 62 77 108 106 101 88 81 75 72 71 70 66 59 53 50
Wind_Direction
207 198 179 184 193 213 240 322 230 226 218 222 234 224 206 217 227 249 236 33 6 29 28 25 26 25 23 25 26 29 34 32 30 29 30 28 23 20 20 23 23 30 28 23 19 16 13 20 21
201 184 183 193 213 227 242 270 289 268 262 245 242 241 226 228 235 246 237 276 290 320 351 5 7 5 8 11 16 15 21 25 24 24 26 25 21 18 22 22 21 19 22 19 17 13 10 8 13
212 188 195 212 231 226 247 306 280 258 279 265 254 250 248 233 252 251 255 275 286 286 299 307 319 332 342 352 360 3 5 12 14 16 19 20 20 16 18 20 22 19 8 6 7 6 6 10 15
209 203 219 233 246 243 225 270 272 268 270 282 269 257 257 250 249 255 253 266 279 284 288 294 305 316 323 332 339 346 353 358 1 3 6 10 11 12 9 10 18 16 8 1 354 354 355 10 20
222 230 232 252 271 273 265 270 316 293 283 267 281 275 263 261 257 253 257 260 266 270 279 285 287 295 305 314 320 329 339 345 346 352 352 354 355 359 358 356 359 9 9 3 352 343 342 349 2
232 241 249 257 269 282 284 296 301 296 288 278 272 281 274 268 264 262 262 263 262 270 273 275 280 284 291 298 308 315 322 328 337 338 342 338 339 340 343 347 346 348 356 359 357 346 335 332 335
233 250 260 260 269 284 293 308 304 300 297 288 275 277 275 274 271 266 270 268 263 266 271 275 275 280 283 290 299 306 310 313 316 321 325 326 328 325 327 332 336 335 337 340 346 345 339 331 328
239 246 260 261 263 284 289 292 292 296 302 296 286 282 279 279 277 277 274 271 271 264 269 274 279 278 279 284 289 294 299 300 301 306 310 311 310 317 318 319 323 326 327 328 328 328 328 330 331
250 252 263 267 278 281 285 287 291 295 292 289 290 282 287 282 283 279 276 276 275 272 265 270 274 279 279 280 285 289 290 291 291 292 297 301 299 302 307 314 312 314 319 321 319 320 318 318 321
254 259 264 277 280 281 282 284 286 291 297 290 281 286 283 282 283 282 278 279 276 276 275 270 270 271 278 277 278 280 282 281 284 286 287 291 292 293 297 300 308 310 306 309 313 318 320 316 313
256 260 265 279 286 289 284 288 290 294 292 288 291 290 291 284 276 281 282 275 272 268 267 265 263 266 267 275 274 275 276 278 279 281 281 286 287 287 287 289 292 295 297 296 296 298 304 309 311
263 268 270 276 289 284 282 287 291 296 283 293 291 287 289 289 284 278 277 278 273 268 266 267 264 258 260 261 270 273 271 272 275 277 279 283 283 283 283 283 285 287 288 288 287 286 288 291 295
272 270 279 277 281 281 284 289 288 282 292 293 292 289 287 288 284 281 279 275 275 272 269 268 272 272 266 263 262 265 271 270 270 274 277 278 279 279 280 280 281 281 283 285 286 286 285 285 285
276 276 275 278 284 287 288 291 288 284 285 283 282 283 282 283 285 283 271 271 274 275 277 275 276 278 275 270 268 267 266 271 273 274 275 277 277 279 280 281 282 281 281 281 279 280 282 282 284
282 279 286 288 287 291 292 298 290 289 288 284 279 279 279 276 272 278 288 286 281 282 279 278 274 274 279 281 277 273 271 270 271 271 274 275 275 277 277 277 278 278 277 277 276 275 276 277 281
286 291 287 287 289 287 290 283 282 284 283 283 279 273 274 276 283 284 285 282 282 280 283 284 286 281 275 275 278 278 275 274 274 272 272 274 275 275 274 274 273 274 276 275 275 275 275 276 277
293 300 304 301 300 295 302 308 286 282 287 286 282 281 284 289 295 296 295 291 287 282 280 282 281 281 284 282 278 278 278 276 276 276 274 272 272 274 275 277 277 278 278 278 278 279 278 275 275
302 310 313 308 300 309 316 318 301 292 289 292 292 292 293 294 297 300 298 294 289 282 277 276 276 278 281 281 272 267 270 276 276 275 275 274 274 275 275 275 275 274 273 274 275 276 277 274 273
307 309 309 308 303 302 298 304 291 293 288 287 288 292 292 289 288 291 290 289 286 286 284 279 283 282 281 282 283 280 272 270 269 267 268 270 270 271 271 270 271 271 270 269 272 272 273 274 276
314 306 307 307 299 298 297 299 296 293 293 293 291 288 287 291 289 288 286 288 281 288 287 284 288 287 283 280 278 282 283 276 270 268 266 266 268 266 264 263 264 266 268 269 271 272 272 274 275
310 306 309 307 298 295 297 294 295 292 293 293 293 295 294 293 291 288 289 290 293 293 290 287 288 288 288 286 285 285 283 282 278 270 270 268 263 265 266 265 263 264 265 267 268 270 270 270 271
307 307 305 302 300 296 296 297 298 297 296 295 296 297 296 295 295 295 296 297 294 291 288 287 287 287 286 285 283 281 279 279 279 275 270 271 269 265 264 263 263 263 264 263 264 267 268 268 268
309 307 307 304 303 305 301 301 298 298 297 299 299 300 301 301 302 301 298 297 293 290 285 284 286 284 285 285 284 284 283 280 276 277 275 268 267 264 264 264 263 263 263 262 262 261 263 265 265
306 305 304 302 301 300 302 303 300 301 302 301 301 303 303 302 300 299 298 295 292 291 288 286 286 285 283 282 280 277 281 282 280 277 274 273 270 266 264 263 263 261 262 262 260 258 258 261 264
312 314 311 308 308 308 308 306 305 303 302 301 302 300 299 297 297 297 296 293 289 290 284 284 282 282 280 277 278 276 276 280 280 276 275 272 270 268 266 264 263 262 259 258 259 258 258 259 261
316 313 312 308 309 307 308 305 303 301 301 301 303 302 298 299 295 296 297 297 296 292 289 287 284 284 284 281 281 281 281 279 274 271 270 270 269 267 264 261 258 260 258 257 257 259 259 258 260
316 315 312 310 307 308 307 308 309 311 311 310 306 303 300 297 297 298 298 299 294 293 292 292 291 289 288 289 287 286 285 283 276 253 264 267 266 264 262 259 254 254 257 255 254 256 257 257 257
312 313 313 313 312 310 312 310 313 313 312 310 306 293 289 290 292 296 297 293 289 290 289 292 293 293 293 294 293 291 287 281 271 259 246 245 258 260 258 254 251 245 248 252 251 253 254 256 256
313 313 313 311 312 311 312 309 313 312 308 306 302 299 296 298 300 297 295 298 302 301 300 299 298 297 295 294 291 285 280 275 265 250 240 238 238 243 249 248 244 239 234 243 248 249 251 253 252
314 316 315 312 313 312 309 309 313 306 305 302 301 300 300 302 301 301 302 303 302 300 297 294 294 296 298 295 294 288 279 269 271 265 254 253 242 237 237 240 236 234 228 236 241 244 247 247 247
Height
5925 5927 5927 5928 5932 5929 5929 5928 5928 5929 5931 5931 5932 5933 5935 5935 5935 5939 5936 5936 5936 5935 5935 5934 5934 5933 5932 5931 5929 5928 5926 5926 5924 5922 5920 5918 5916 5914 5912 5909 5908 5906 5905 5903 5901 5899 5898 5897 5896
5925 5926 5927 5927 5929 5928 5927 5927 5929 5929 5929 5930 5932 5933 5934 5934 5934 5935 5936 5936 5935 5935 5934 5934 5934 5933 5932 5931 5930 5929 5927 5926 5924 5923 5920 5918 5916 5915 5912 5910 5908 5907 5905 5904 5903 5901 5899 5897 5897
5924 5926 5927 5927 5927 5927 5927 5925 5928 5928 5928 5928 5930 5931 5932 5934 5933 5933 5934 5935 5935 5934 5934 5933 5933 5932 5932 5931 5930 5929 5928 5926 5925 5923 5921 5919 5917 5916 5914 5911 5909 5907 5906 5905 5903 5902 5900 5898 5897
5924 5926 5928 5927 5925 5925 5924 5924 5925 5927 5928 5927 5927 5929 5930 5931 5931 5930 5932 5933 5935 5933 5932 5932 5932 5932 5931 5930 5929 5928 5927 5925 5924 5923 5921 5920 5918 5916 5915 5913 5910 5908 5907 5905 5904 5902 5901 5900 5899
5923 5925 5926 5926 5926 5925 5925 5925 5926 5926 5926 5926 5925 5926 5927 5928 5929 5928 5929 5930 5932 5931 5930 5930 5930 5930 5929 5928 5927 5926 5925 5924 5923 5922 5920 5919 5918 5916 5915 5914 5911 5909 5907 5906 5905 5903 5901 5900 5900
5923 5924 5924 5925 5925 5924 5923 5924 5925 5925 5923 5923 5924 5922 5924 5925 5927 5926 5927 5927 5929 5927 5927 5927 5927 5927 5926 5925 5925 5924 5924 5923 5922 5921 5919 5918 5917 5916 5915 5914 5912 5910 5908 5906 5904 5903 5902 5900 5900
5921 5922 5923 5923 5924 5924 5923 5924 5923 5922 5920 5919 5920 5919 5922 5921 5922 5923 5922 5923 5926 5925 5923 5923 5923 5923 5923 5923 5922 5922 5922 5922 5921 5920 5918 5917 5916 5915 5913 5912 5911 5910 5908 5906 5904 5903 5901 5900 5898
5919 5921 5920 5920 5922 5923 5923 5922 5920 5920 5919 5918 5917 5916 5920 5920 5919 5920 5918 5919 5920 5923 5922 5920 5918 5919 5920 5920 5919 5919 5918 5918 5918 5918 5916 5915 5914 5912 5912 5910 5909 5908 5907 5905 5904 5902 5900 5899 5897
5917 5919 5917 5918 5920 5919 5918 5918 5916 5918 5918 5915 5912 5912 5916 5916 5916 5916 5915 5914 5916 5917 5917 5917 5916 5913 5915 5915 5915 5915 5914 5914 5914 5914 5913 5912 5911 5910 5909 5908 5907 5905 5904 5903 5902 5900 5899 5897 5896
5915 5916 5915 5915 5915 5916 5915 5915 5915 5915 5914 5910 5912 5907 5911 5912 5910 5909 5909 5909 5910 5910 5910 5912 5911 5910 5909 5910 5910 5909 5909 5909 5909 5908 5909 5909 5907 5907 5905 5904 5903 5902 5902 5900 5900 5898 5896 5895 5894
5912 5913 5912 5911 5912 5913 5912 5912 5911 5912 5910 5907 5908 5905 5903 5906 5907 5904 5902 5903 5903 5902 5901 5901 5904 5904 5905 5903 5903 5904 5903 5903 5903 5902 5902 5903 5902 5902 5902 5901 5900 5899 5898 5897 5896 5895 5894 5893 5891
5910 5909 5909 5910 5909 5908 5909 5910 5909 5908 5904 5904 5903 5901 5898 5897 5898 5898 5897 5896 5896 5895 5895 5892 5893 5895 5896 5898 5896 5895 5896 5896 5896 5895 5896 5898 5897 5897 5896 5895 5895 5894 5894 5893 5891 5891 5890 5889 5888
5907 5906 5906 5906 5905 5905 5906 5905 5905 5902 5902 5901 5897 5896 5894 5891 5890 5891 5891 5889 5885 5885 5886 5887 5885 5888 5891 5892 5892 5891 5888 5889 5889 5889 5888 5890 5888 5889 5890 5889 5889 5888 5888 5887 5886 5885 5884 5884 5883
5903 5904 5903 5902 5902 5901 5902 5902 5899 5898 5898 5896 5893 5889 5888 5885 5883 5882 5879 5879 5880 5880 5880 5882 5882 5878 5878 5882 5883 5883 5884 5882 5882 5882 5881 5881 5880 5881 5882 5881 5881 5881 5880 5880 5879 5879 5878 5877 5876
5899 5901 5899 5898 5896 5895 5896 5897 5894 5893 5892 5891 5889 5884 5881 5880 5872 5871 5875 5875 5876 5874 5872 5870 5871 5872 5870 5870 5873 5874 5875 5876 5875 5875 5873 5873 5873 5872 5873 5873 5872 5872 5872 5872 5871 5871 5871 5871 5869
5895 5896 5897 5892 5891 5890 5892 5895 5890 5885 5883 5882 5880 5877 5875 5867 5870 5870 5871 5870 5868 5865 5861 5859 5861 5863 5864 5862 5860 5862 5865 5865 5866 5865 5865 5864 5863 5864 5864 5864 5863 5863 5863 5863 5863 5862 5862 5862 5862
5890 5891 5891 5890 5885 5884 5886 5889 5884 5879 5877 5875 5871 5868 5868 5868 5866 5864 5863 5863 5862 5858 5855 5853 5852 5850 5852 5854 5853 5851 5852 5854 5854 5854 5854 5853 5853 5853 5854 5855 5854 5854 5854 5854 5854 5854 5853 5854 5852
5888 5887 5886 5884 5883 5878 5877 5880 5877 5873 5870 5869 5868 5865 5864 5863 5861 5858 5855 5853 5851 5848 5846 5843 5842 5841 5838 5837 5840 5840 5838 5841 5842 5843 5843 5842 5843 5843 5844 5844 5843 5844 5844 5843 5843 5844 5844 5843 5843
5885 5883 5882 5880 5877 5876 5873 5874 5871 5868 5865 5864 5862 5861 5858 5856 5854 5850 5848 5844 5842 5840 5838 5833 5832 5831 5830 5827 5824 5829 5830 5828 5827 5829 5830 5830 5831 5830 5831 5831 5831 5832 5833 5832 5833 5833 5834 5833 5833
5879 5877 5877 5876 5872 5870 5867 5865 5865 5860 5857 5855 5853 5851 5849 5847 5844 5841 5838 5835 5833 5830 5829 5825 5820 5818 5819 5817 5814 5812 5815 5819 5817 5815 5817 5817 5817 5816 5816 5817 5818 5819 5820 5821 5822 5823 5823 5822 5823
5874 5870 5870 5868 5867 5863 5860 5858 5855 5852 5847 5842 5839 5838 5837 5834 5832 5830 5826 5823 5821 5818 5815 5811 5808 5804 5802 5802 5801 5800 5798 5801 5804 5804 5804 5804 5803 5803 5803 5804 5805 5806 5807 5809 5810 5811 5811 5811 5812
5869 5865 5862 5859 5855 5854 5850 5849 5842 5838 5835 5829 5825 5822 5820 5819 5818 5816 5813 5809 5805 5802 5799 5795 5792 5789 5786 5784 5783 5784 5783 5782 5783 5787 5789 5791 5791 5790 5791 5791 5790 5792 5794 5795 5796 5798 5799 5799 5800
5861 5858 5855 5850 5846 5843 5839 5837 5835 5827 5820 5816 5812 5808 5803 5800 5799 5796 5794 5791 5788 5785 5782 5779 5775 5773 5770 5766 5764 5762 5763 5763 5764 5764 5769 5772 5774 5775 5776 5777 5777 5777 5779 5781 5782 5784 5785 5786 5787
5852 5850 5847 5841 5838 5835 5832 5827 5819 5813 5808 5801 5797 5794 5789 5785 5782 5779 5775 5770 5767 5765 5761 5758 5755 5752 5749 5746 5743 5741 5739 5741 5743 5745 5746 5751 5754 5756 5760 5762 5762 5763 5764 5767 5767 5769 5770 5772 5774
5843 5840 5836 5832 5828 5825 5819 5814 5809 5799 5795 5792 5787 5781 5776 5771 5765 5761 5757 5753 5749 5743 5738 5735 5732 5729 5727 5723 5720 5720 5719 5719 5719 5721 5721 5725 5731 5736 5740 5743 5746 5748 5749 5750 5753 5754 5756 5759 5760
5836 5832 5828 5821 5820 5817 5814 5805 5798 5792 5785 5780 5772 5766 5759 5752 5746 5741 5735 5729 5724 5718 5711 5708 5704 5702 5697 5692 5689 5687 5689 5694 5693 5693 5696 5698 5703 5711 5717 5724 5728 5731 5733 5734 5736 5739 5743 5746 5747
5826 5822 5818 5813 5809 5803 5800 5796 5784 5775 5772 5766 5757 5747 5737 5732 5727 5722 5715 5708 5697 5690 5684 5673 5666 5664 5663 5654 5651 5652 5654 5656 5659 5663 5665 5669 5675 5680 5690 5699 5706 5712 5716 5718 5720 5724 5728 5732 5735
5818 5815 5808 5802 5796 5788 5787 5779 5775 5765 5757 5749 5740 5730 5722 5712 5707 5704 5697 5688 5677 5670 5662 5650 5639 5631 5625 5617 5612 5612 5617 5617 5621 5628 5630 5635 5643 5650 5658 5671 5681 5690 5696 5699 5703 5708 5713 5718 5722
5810 5804 5798 5792 5784 5775 5774 5771 5765 5755 5744 5735 5724 5716 5705 5697 5691 5684 5674 5659 5643 5634 5625 5615 5607 5601 5598 5592 5587 5586 5586 5582 5586 5591 5594 5599 5608 5616 5623 5639 5652 5664 5673 5679 5684 5691 5696 5704 5708
5800 5793 5785 5777 5771 5760 5753 5759 5750 5741 5732 5720 5706 5695 5685 5675 5664 5653 5641 5630 5620 5610 5605 5598 5591 5586 5580 5573 5568 5565 5566 5564 5563 5565 5567 5566 5570 5580 5591 5602 5620 5635 5649 5659 5665 5673 5680 5688 5693